Location: Allens Landing
(37.8284°N, 89.7284°W)
Time: 21:57:39
(UTC+00:00)

Courier 1B - Pass Details

Date: 16 November 2024
Orbit: 962 x 1208 km, 28.3° (Epoch: 03 December)

Event Time Altitude Azimuth Distance (km) Brightness Sun altitude
Rises 00:42:00 0° 258° (WSW) 3,634 12.0 -22.7°
Reaches altitude 10° 00:46:04 10° 234° (SW) 2,699 10.6 -23.5°
Maximum altitude 00:49:12 14° 205° (SSW) 2,439 9.9 -24.1°
Drops below altitude 10° 00:52:23 10° 176° (S) 2,742 9.9 -24.7°
Enters shadow 00:55:17 - 158° (SSE) 3,383 10.2 -25.3°
